| time (UTC) | temp F | wind direction | speed MPH | gust MPH | rain 1hr in | rain 24hr in | rain mn in | humidity % | barometer mb |
| 20260504004608 | 53 | 0.0 | 0.0 | 0.00 | 0.00 | 0.00 | 37 | 1016.2 | |
| 20260504003048 | 54 | 0.0 | 0.0 | 0.00 | 0.00 | 0.00 | 37 | 1016.2 | |
| 20260504001610 | 55 | 0.0 | 0.0 | 0.00 | 0.00 | 0.00 | 33 | 1016.0 | |
| 20260504000044 | 56 | 0.0 | 0.0 | 0.00 | 0.00 | 0.00 | 32 | 1015.8 | |
| 20260503234539 | 57 | 0.0 | 0.0 | 0.00 | 0.00 | 0.00 | 32 | 1015.9 | |
| 20260503233042 | 58 | 0.0 | 0.0 | 0.00 | 0.00 | 0.00 | 31 | 1015.9 | |
| 20260503231539 | 58 | 0.0 | 0.0 | 0.00 | 0.00 | 0.00 | 30 | 1015.9 | |
| 20260503230047 | 59 | 0.0 | 0.0 | 0.00 | 0.00 | 0.00 | 30 | 1015.8 | |
| 20260503224538 | 59 | 0.0 | 0.0 | 0.00 | 0.00 | 0.00 | 29 | 1015.8 | |
| 20260503223038 | 59 | 0.0 | 0.0 | 0.00 | 0.00 | 0.00 | 30 | 1015.9 | |
| 20260503221537 | 59 | 0.0 | 0.0 | 0.00 | 0.00 | 0.00 | 29 | 1016.0 | |
| 20260503220044 | 59 | 0.0 | 0.0 | 0.00 | 0.00 | 0.00 | 29 | 1016.1 | |
| 20260503214536 | 59 | 0.0 | 0.0 | 0.00 | 0.00 | 0.00 | 27 | 1016.2 | |
| 20260503213036 | 60 | 0.0 | 0.0 | 0.00 | 0.00 | 0.00 | 29 | 1016.2 | |
| 20260503211535 | 59 | 0.0 | 0.0 | 0.00 | 0.00 | 0.00 | 28 | 1016.4 | |
| 20260503210034 | 59 | 0.0 | 0.0 | 0.00 | 0.00 | 0.00 | 28 | 1016.3 | |
| 20260503204535 | 59 | 0.0 | 0.0 | 0.00 | 0.00 | 0.00 | 29 | 1016.5 | |
| 20260503203046 | 59 | 0.0 | 0.0 | 0.00 | 0.00 | 0.00 | 28 | 1016.6 | |
| 20260503201535 | 59 | 0.0 | 0.0 | 0.00 | 0.00 | 0.00 | 29 | 1016.7 | |
| 20260503200032 | 59 | 0.0 | 0.0 | 0.00 | 0.00 | 0.00 | 29 | 1017.0 | |
| 20260503194540 | 59 | 0.0 | 0.0 | 0.00 | 0.00 | 0.00 | 28 | 1017.2 | |
| 20260503193037 | 59 | 0.0 | 0.0 | 0.00 | 0.00 | 0.00 | 28 | 1017.4 | |
| 20260503191531 | 59 | 0.0 | 0.0 | 0.00 | 0.00 | 0.00 | 29 | 1017.6 | |
| 20260503190038 | 59 | 0.0 | 0.0 | 0.00 | 0.00 | 0.00 | 28 | 1017.8 | |
| 20260503184530 | 60 | 0.0 | 0.0 | 0.00 | 0.00 | 0.00 | 31 | 1018.0 | |
| 20260503183031 | 60 | 0.0 | 0.0 | 0.00 | 0.00 | 0.00 | 29 | 1018.3 | |
| 20260503181529 | 60 | 0.0 | 0.0 | 0.00 | 0.00 | 0.00 | 29 | 1018.4 | |
| 20260503180033 | 60 | 0.0 | 0.0 | 0.00 | 0.00 | 0.00 | 29 | 1018.5 | |
| 20260503174528 | 61 | 0.0 | 0.0 | 0.00 | 0.00 | 0.00 | 30 | 1018.6 | |
| 20260503173027 | 62 | 0.0 | 0.0 | 0.00 | 0.00 | 0.00 | 29 | 1018.7 | |
| 20260503171526 | 62 | 0.0 | 0.0 | 0.00 | 0.00 | 0.00 | 31 | 1019.0 | |
| 20260503081523 | 40 | 0.0 | 0.0 | 0.00 | 0.00 | 0.00 | 65 | 1016.6 | |
| 20260503071503 | 40 | 0.0 | 0.0 | 0.00 | 0.00 | 0.00 | 64 | 1016.2 | |
| 20260503060118 | 41 | 0.0 | 0.0 | 0.00 | 0.00 | 0.00 | 64 | 1016.1 | |
| 20260503054611 | 41 | 0.0 | 0.0 | 0.00 | 0.00 | 0.00 | 63 | 1016.1 | |
| 20260503053056 | 42 | 0.0 | 0.0 | 0.00 | 0.00 | 0.00 | 64 | 1016.2 | |
| 20260503051554 | 42 | 0.0 | 0.0 | 0.00 | 0.00 | 0.00 | 64 | 1016.1 | |
| 20260503050053 | 42 | 0.0 | 0.0 | 0.00 | 0.00 | 0.00 | 64 | 1016.0 | |
| 20260503044551 | 42 | 0.0 | 0.0 | 0.00 | 0.00 | 0.00 | 63 | 1015.8 | |
| 20260503043050 | 42 | 0.0 | 0.0 | 0.00 | 0.00 | 0.00 | 63 | 1015.7 | |
| 20260503041548 | 43 | 0.0 | 0.0 | 0.00 | 0.00 | 0.00 | 62 | 1015.4 | |
| 20260503040044 | 43 | 0.0 | 0.0 | 0.00 | 0.00 | 0.00 | 61 | 1015.3 | |
| 20260503034543 | 43 | 0.0 | 0.0 | 0.00 | 0.00 | 0.00 | 61 | 1015.1 | |
| 20260503033041 | 44 | 0.0 | 0.0 | 0.00 | 0.00 | 0.00 | 60 | 1015.1 | |
| 20260503031544 | 44 | 0.0 | 0.0 | 0.00 | 0.00 | 0.00 | 59 | 1015.1 | |
| 20260503030045 | 44 | 0.0 | 0.0 | 0.00 | 0.00 | 0.00 | 58 | 1015.4 | |
| 20260503024539 | 44 | 0.0 | 0.0 | 0.00 | 0.00 | 0.00 | 58 | 1015.2 | |
| 20260503023039 | 45 | 0.0 | 0.0 | 0.00 | 0.00 | 0.00 | 57 | 1015.4 | |
| 20260503021537 | 45 | 0.0 | 0.0 | 0.00 | 0.00 | 0.00 | 56 | 1015.3 | |
| 20260503020035 | 45 | 0.0 | 0.0 | 0.00 | 0.00 | 0.00 | 54 | 1015.1 | |
| 20260503014534 | 46 | 0.0 | 0.0 | 0.00 | 0.00 | 0.00 | 55 | 1014.8 | |
| 20260503013033 | 46 | 0.0 | 0.0 | 0.00 | 0.00 | 0.00 | 53 | 1014.8 | |
| 20260503011534 | 47 | 0.0 | 0.0 | 0.00 | 0.00 | 0.00 | 52 | 1014.6 | |
| 20260503010035 | 47 | 0.0 | 0.0 | 0.00 | 0.00 | 0.00 | 52 | 1014.6 |